Location: Shepherdstown, WV
(39.4326°N, 77.8042°W)
Time: 06:40:07
(UTC-04:00)

Vanguard 2 Rocket - Pass Details

Date: 08 August 2021
Orbit: 556 x 3324 km, 32.9° (Epoch: 21 September)

Event Time Altitude Azimuth Distance (km) Brightness Sun altitude
Exits shadow 03:32:18 13° 152° (SSE) 3,076 9.3 -26.2°
Drops below altitude 10° 03:34:56 10° 131° (SE) 3,022 9.5 -25.9°
Sets 03:38:49 0° 104° (ESE) 3,541 10.2 -25.4°
